Location: Edisto_Beach
(32.4790°N, 80.3350°W)
Time: 18:58:10
(UTC-05:00)

Amateur Radio Satellites - All Passes

Search period start: 23 November 2014 18:28
Search period end: 24 November 2014 18:28
Location: Edisto_Beach, 32.4790°N, 80.3350°W

Satellite Date Start Highest point End Downlink Frequencies (MHz)
Time Altitude Azimuth
PCSat 23 Nov 18:42:38 18:43:51 11° 102° (ESE) 18:45:04 145.827
PHONESAT 2.4 23 Nov 18:59:22 19:02:25 23° 4° (N) 19:05:27 2401.200-2431.200
PRISM 23 Nov 18:59:59 19:03:53 37° 287° (WNW) 19:07:45 437.425
Cubesat XI-IV 23 Nov 19:12:35 19:16:03 17° 266° (W) 19:19:32 437.490
BRITE-PL 23 Nov 19:19:35 19:20:39 11° 67° (ENE) 19:21:43 437.365/2234.400
VERMONT LUNAR 23 Nov 19:21:41 19:24:51 27° 12° (NNE) 19:28:01 437.305
STRAND 1 23 Nov 19:24:46 19:29:52 75° 285° (WNW) 19:34:56 437.568
GONETS M04 23 Nov 19:35:15 19:43:50 53° 80° (E) 19:52:18
HO-68 23 Nov 19:44:00 19:50:27 37° 67° (ENE) 19:56:54 435.675
SHINDAISAT 23 Nov 19:46:49 19:48:02 18° 59° (ENE) 19:49:13 437.305
AIST 1 23 Nov 19:47:28 19:51:39 46° 93° (E) 19:55:52
AAUSAT CUBESAT 2 23 Nov 19:53:53 19:55:56 14° 68° (ENE) 19:58:00 437.432
CANX-2 23 Nov 19:54:22 19:57:48 25° 71° (ENE) 20:01:14 2200.000
CUBESAT XI-V 23 Nov 19:59:18 20:03:09 26° 289° (WNW) 20:06:58 437.345
COMPASS 1 23 Nov 20:06:02 20:09:14 22° 71° (ENE) 20:12:28 437.405
DOVE 4 23 Nov 20:10:09 20:13:29 19° 71° (ENE) 20:16:41 437.250
PCSat 23 Nov 20:21:09 20:26:32 74° 296° (WNW) 20:31:58 145.827
RS-15 23 Nov 20:24:31 20:27:34 11° 339° (NNW) 20:30:37 29.354- 29.394
CUTE 1.7 & AOD 2 23 Nov 20:28:34 20:32:42 61° 76° (ENE) 20:36:52 437.475
PHONESAT 2.4 23 Nov 20:38:07 20:41:44 48° 21° (NNE) 20:45:20 2401.200-2431.200
GOMX 1 23 Nov 20:38:26 20:43:19 57° 76° (ENE) 20:47:52 467.674
BEESAT 3 23 Nov 20:42:06 20:46:10 89° 301° (WNW) 20:50:19 437.485
UKube-1 23 Nov 20:43:57 20:47:33 26° 71° (ENE) 20:51:09 .
FUNcube-1 23 Nov 20:45:35 20:46:30 11° 67° (ENE) 20:47:25 145.935
BRITE-PL 23 Nov 20:53:26 20:58:41 71° 259° (WSW) 21:03:32 437.365/2234.400
BEESAT 2 23 Nov 20:55:23 20:59:27 69° 299° (WNW) 21:03:36 435.950
Oscar 11 23 Nov 20:56:47 21:00:47 39° 74° (ENE) 21:04:47 145.826/435.025
CUBEBUG 2 23 Nov 20:56:51 21:00:10 22° 71° (ENE) 21:03:25 437.445
VERMONT LUNAR 23 Nov 20:59:59 21:03:38 88° 206° (SSW) 21:07:15 437.305
UWE-3 23 Nov 21:02:34 21:05:51 22° 71° (ENE) 21:09:05 435.000/436.395/437.385
CINEMA 3 23 Nov 21:04:16 21:08:34 46° 75° (ENE) 21:12:43 145.822/145.860
SEEDS 23 Nov 21:05:03 21:09:07 52° 260° (W) 21:13:13 437.485
DX 1 23 Nov 21:16:01 21:20:21 66° 75° (ENE) 21:24:43 434.975-435.025
AIST 2 23 Nov 21:18:09 21:22:21 83° 298° (WNW) 21:26:38 435.215
AAUSAT CUBESAT 2 23 Nov 21:27:25 21:31:15 37° 262° (W) 21:35:08 437.432
AIST 1 23 Nov 21:28:11 21:29:32 11° 287° (WNW) 21:30:54
CANX-2 23 Nov 21:30:32 21:33:39 20° 265° (W) 21:36:48 2200.000
HO-68 23 Nov 21:31:38 21:38:02 35° 261° (W) 21:44:29 435.675
GONETS M04 23 Nov 21:33:03 21:40:04 28° 276° (W) 21:47:03
VELOX 1 23 Nov 21:35:00 21:38:52 29° 71° (ENE) 21:42:45 145.980
COMPASS 1 23 Nov 21:41:35 21:44:50 22° 264° (W) 21:48:07 437.405
ZACube-1 23 Nov 21:42:26 21:46:37 57° 76° (ENE) 21:50:44 437.345
HUMSAT D 23 Nov 21:45:21 21:49:06 34° 73° (ENE) 21:52:51 437.325/437.525
DELFI C3 23 Nov 21:45:22 21:49:21 57° 260° (W) 21:53:22 145.870
DOVE 4 23 Nov 21:46:45 21:51:02 32° 262° (W) 21:55:07 437.250
50 SAT 23 Nov 21:51:25 21:55:02 32° 73° (ENE) 21:58:39 437.505
AISAT 23 Nov 21:59:02 22:03:26 59° 75° (ENE) 22:07:51 437.250
POLYITAN 1 23 Nov 22:07:36 22:08:49 11° 93° (E) 22:10:02 437.675
QB50P2 23 Nov 22:10:12 22:11:56 12° 93° (E) 22:13:39 145.880/145.840
TIGRISAT 23 Nov 22:14:44 22:18:14 23° 97° (E) 22:21:47 435.000
PHONESAT 2.4 23 Nov 22:17:08 22:20:27 31° 215° (SW) 22:23:44 2401.200-2431.200
DUCHIFAT 1 23 Nov 22:17:19 22:19:44 15° 94° (E) 22:22:08 145.980
FUNcube-1 23 Nov 22:18:17 22:22:25 49° 260° (W) 22:26:29 145.935
GOMX 1 23 Nov 22:20:00 22:21:34 11° 266° (W) 22:23:07 467.674
UKube-1 23 Nov 22:20:18 22:23:37 21° 264° (W) 22:26:57 .
CUBEBUG 1 23 Nov 22:21:56 22:25:56 34° 72° (ENE) 22:29:56 437.445
UNISAT 6 23 Nov 22:26:32 22:30:32 32° 98° (E) 22:34:35 437.425
CUBEBUG 2 23 Nov 22:33:13 22:36:44 24° 263° (W) 22:40:11 437.445
Oscar 11 23 Nov 22:35:01 22:37:04 13° 267° (W) 22:39:08 145.826/435.025
NANOSAT C BR1 23 Nov 22:35:20 22:38:51 25° 97° (E) 22:42:21 145.865
UWE-3 23 Nov 22:38:47 22:42:15 24° 263° (W) 22:45:40 435.000/436.395/437.385
VERMONT LUNAR 23 Nov 22:39:53 22:41:44 14° 220° (SW) 22:43:35 437.305
CINEMA 3 23 Nov 22:44:15 22:45:54 12° 266° (W) 22:47:32 145.822/145.860
QB50P1 23 Nov 22:44:37 22:48:26 33° 98° (E) 22:52:15 145.935-145.965
RS-15 23 Nov 22:45:07 22:47:52 11° 20° (NNE) 22:50:39 29.354- 29.394
ANTELSAT 23 Nov 22:54:37 22:59:03 71° 102° (ESE) 23:03:36 437.575/2403.000
ESTCUBE 1 23 Nov 23:00:17 23:04:49 79° 258° (WSW) 23:09:23 437.505/2401.250
CUSAT 1 23 Nov 23:07:15 23:07:59 10° 77° (ENE) 23:08:44 437.405
BUGSAT 1 23 Nov 23:08:23 23:12:23 53° 100° (E) 23:16:19 437.445
POPSAT HIP 1 23 Nov 23:08:46 23:12:58 69° 101° (ESE) 23:17:09 437.405
VELOX 1 23 Nov 23:12:11 23:15:26 20° 264° (W) 23:18:41 145.980
DANDE 23 Nov 23:20:52 23:22:41 12° 78° (ENE) 23:24:40 436.750
HUMSAT D 23 Nov 23:22:47 23:24:59 14° 266° (W) 23:27:10 437.325/437.525
50 SAT 23 Nov 23:28:17 23:30:25 14° 266° (W) 23:32:32 437.505
ISS 23 Nov 23:33:11 23:36:22 52° 132° (SE) 23:39:34 145.825
JUGNU 23 Nov 23:40:06 23:43:16 15° 165° (SSE) 23:46:27 437.505
POLYITAN 1 23 Nov 23:40:55 23:44:57 44° 286° (WNW) 23:48:58 437.675
QB50P2 23 Nov 23:44:01 23:47:59 41° 286° (WNW) 23:51:57 145.880/145.840
SWISSCUBE 23 Nov 23:46:55 23:48:26 11° 65° (ENE) 23:49:58 437.505
TIGRISAT 23 Nov 23:51:16 23:54:53 25° 289° (WNW) 23:58:35 435.000
DUCHIFAT 1 23 Nov 23:51:52 23:55:40 33° 287° (WNW) 23:59:26 145.980
TISAT 1 23 Nov 23:53:37 23:57:54 82° 258° (WSW) 00:02:12 437.305
SPROUT 23 Nov 23:55:39 23:59:59 88° 77° (ENE) 00:04:20 437.525
CUBEBUG 1 23 Nov 23:59:28 00:02:20 17° 265° (W) 00:05:13 437.445
UNISAT 6 24 Nov 00:04:01 00:07:04 19° 290° (WNW) 00:10:11 437.425
AUBIESAT-1 24 Nov 00:07:50 00:11:18 32° 67° (ENE) 00:15:04 437.475
M-CUBED/EXP-1 PRIME 24 Nov 00:11:09 00:14:45 38° 68° (ENE) 00:18:41 437.505
NANOSAT C BR1 24 Nov 00:11:28 00:14:33 20° 290° (WNW) 00:17:38 145.865
BEESAT 24 Nov 00:16:07 00:19:48 23° 69° (ENE) 00:23:31 436.000
QB50P1 24 Nov 00:21:31 00:24:02 16° 291° (WNW) 00:26:32 145.935-145.965
CUSAT 1 24 Nov 00:46:08 00:50:54 71° 263° (W) 00:57:21 437.405
RS-15 24 Nov 00:54:28 01:04:48 39° 51° (NE) 01:15:28 29.354- 29.394
DANDE 24 Nov 01:01:22 01:05:55 59° 263° (W) 01:12:06 436.750
Oscar 19 24 Nov 01:04:27 01:08:41 25° 96° (E) 01:12:53 437.125/150
ITUPSAT 1 24 Nov 01:08:58 01:13:46 87° 77° (ENE) 01:18:37 437.325
ISS 24 Nov 01:11:22 01:13:14 14° 328° (NNW) 01:15:06 145.825
MaSat-1 24 Nov 01:15:34 01:17:29 22° 65° (ENE) 01:19:28 437.345
SWISSCUBE 24 Nov 01:20:59 01:25:43 62° 259° (WSW) 01:30:29 437.505
KKS-1 24 Nov 01:21:56 01:25:19 22° 70° (ENE) 01:28:41 437.445
JUGNU 24 Nov 01:27:08 01:31:40 23° 175° (S) 01:36:13 437.505
SRMSAT 24 Nov 01:33:54 01:37:42 17° 167° (SSE) 01:41:29 437.500
AUBIESAT-1 24 Nov 01:44:10 01:46:26 15° 263° (W) 01:48:49 437.475
M-CUBED/EXP-1 PRIME 24 Nov 01:48:32 01:50:04 12° 264° (W) 01:51:40 437.505
ITAMSAT 1 24 Nov 01:52:06 01:56:28 27° 97° (E) 02:00:48 435.822/435.867
BEESAT 24 Nov 01:53:18 01:57:27 30° 263° (W) 02:01:38 436.000
Gurwin Techsat 1B 24 Nov 02:10:34 02:14:47 24° 96° (E) 02:18:57 435.225
STARS 24 Nov 02:21:32 02:25:56 72° 76° (ENE) 02:30:20 437.465
HORYU 2 24 Nov 02:34:08 02:36:37 15° 94° (E) 02:39:07 437.375
YUBILEINY 24 Nov 02:40:08 02:48:47 64° 92° (E) 02:57:25 435.215
Oscar 19 24 Nov 02:43:28 02:47:56 30° 290° (WNW) 02:52:24 437.125/150
KKS-1 24 Nov 02:57:59 03:01:46 27° 263° (W) 03:05:33 437.445
RS-15 24 Nov 03:06:31 03:17:27 56° 250° (WSW) 03:28:52 29.354- 29.394
JUGNU 24 Nov 03:15:34 03:20:08 23° 185° (S) 03:24:42 437.505
SRMSAT 24 Nov 03:21:36 03:26:17 24° 177° (S) 03:30:57 437.500
SO-50 24 Nov 03:23:14 03:26:58 27° 111° (ESE) 03:30:47 436.795
ITAMSAT 1 24 Nov 03:31:28 03:35:50 28° 291° (WNW) 03:40:10 435.822/435.867
MOZHAYETS 4 24 Nov 03:46:34 03:49:52 20° 69° (ENE) 03:53:12
Gurwin Techsat 1B 24 Nov 03:49:59 03:54:43 34° 289° (WNW) 03:59:26 435.225
HORYU 2 24 Nov 04:09:13 04:13:24 39° 287° (WNW) 04:17:35 437.375
AO-7 24 Nov 04:30:06 04:38:27 69° 105° (ESE) 04:46:45 29.400- 29.500
YUBILEINY 24 Nov 04:39:29 04:46:04 23° 288° (WNW) 04:52:42 435.215
JAS-2 24 Nov 04:47:10 04:53:06 30° 94° (E) 04:58:26 435.910
SO-50 24 Nov 05:03:40 05:07:24 25° 306° (NW) 05:11:14 436.795
JUGNU 24 Nov 05:05:16 05:08:32 15° 195° (SSW) 05:11:49 437.505
BEESAT 3 24 Nov 05:07:39 05:10:10 15° 52° (NE) 05:12:40 437.485
SRMSAT 24 Nov 05:10:28 05:14:53 22° 188° (S) 05:19:19 437.500
PCSat 24 Nov 05:14:02 05:18:56 33° 59° (ENE) 05:23:47 145.827
BEESAT 2 24 Nov 05:20:50 05:23:52 19° 53° (NE) 05:26:53 435.950
CUBESAT XI-V 24 Nov 05:22:21 05:24:59 15° 67° (ENE) 05:27:38 437.345
MOZHAYETS 4 24 Nov 05:22:50 05:26:51 31° 263° (W) 05:30:55
AIST 2 24 Nov 05:45:34 05:48:30 18° 52° (NE) 05:51:24 435.215
PRISM 24 Nov 05:45:53 05:50:04 87° 77° (ENE) 05:54:18 437.425
Cubesat XI-IV 24 Nov 05:53:12 05:57:41 27° 97° (E) 06:02:07 437.490
ISS 24 Nov 06:07:19 06:07:52 10° 29° (NNE) 06:08:25 145.825
O/OREOS (USA 219) 24 Nov 06:22:51 06:27:21 90° 288° (WNW) 06:31:51 437.305
AO-7 24 Nov 06:24:19 06:30:27 23° 301° (WNW) 06:36:36 29.400- 29.500
JAS-2 24 Nov 06:31:47 06:38:09 38° 292° (WNW) 06:43:50 435.910
CUTE-I 24 Nov 06:34:34 06:39:53 72° 102° (ESE) 06:45:10 437.470
STRAND 1 24 Nov 06:35:54 06:41:03 84° 257° (WSW) 06:46:13 437.568
BEESAT 3 24 Nov 06:44:38 06:48:34 40° 247° (WSW) 06:52:25 437.485
CUBESAT XI-V 24 Nov 06:57:30 07:02:00 45° 261° (W) 07:06:32 437.345
PCSat 24 Nov 06:57:42 07:02:08 26° 253° (WSW) 07:06:33 145.827
BEESAT 2 24 Nov 06:58:28 07:02:11 31° 248° (WSW) 07:05:51 435.950
SRMSAT 24 Nov 07:00:59 07:03:26 13° 197° (SSW) 07:05:52 437.500
AIST 2 24 Nov 07:23:18 07:27:14 36° 247° (WSW) 07:31:05 435.215
Cubesat XI-IV 24 Nov 07:33:06 07:37:40 30° 290° (WNW) 07:42:12 437.490
AIST 1 24 Nov 07:36:58 07:41:19 69° 266° (W) 07:45:36
ISS 24 Nov 07:41:38 07:44:56 87° 43° (NE) 07:48:15 145.825
CUTE-I 24 Nov 08:17:28 08:19:16 12° 297° (WNW) 08:21:04 437.470
CUTE 1.7 & AOD 2 24 Nov 08:20:06 08:22:38 15° 94° (E) 08:25:11 437.475
GONETS M04 24 Nov 08:29:50 08:38:31 70° 92° (E) 08:47:17
GOMX 1 24 Nov 08:45:49 08:48:56 20° 96° (E) 08:52:06 467.674
Oscar 11 24 Nov 08:51:52 08:52:27 10° 92° (E) 08:53:02 145.826/435.025
SEEDS 24 Nov 08:54:35 08:58:31 35° 98° (E) 09:02:25 437.485
BRITE-PL 24 Nov 09:03:18 09:07:19 48° 100° (E) 09:11:24 437.365/2234.400
HO-68 24 Nov 09:03:28 09:10:32 60° 102° (ESE) 09:17:33 435.675
CINEMA 3 24 Nov 09:05:08 09:07:31 15° 95° (E) 09:09:56 145.822/145.860
DX 1 24 Nov 09:10:33 09:13:15 16° 95° (E) 09:15:57 434.975-435.025
TIGRISAT 24 Nov 09:11:48 09:13:09 11° 67° (ENE) 09:14:30 435.000
AAUSAT CUBESAT 2 24 Nov 09:15:27 09:19:32 46° 99° (E) 09:23:36 437.432
CANX-2 24 Nov 09:19:26 09:23:45 85° 283° (WNW) 09:28:03 2200.000
UNISAT 6 24 Nov 09:22:52 09:25:32 16° 69° (ENE) 09:28:11 437.425
NANOSAT C BR1 24 Nov 09:26:09 09:27:38 12° 67° (ENE) 09:29:08 145.865
COMPASS 1 24 Nov 09:29:11 09:33:26 82° 102° (ESE) 09:37:41 437.405
DELFI C3 24 Nov 09:31:17 09:34:50 27° 97° (E) 09:38:22 145.870
QB50P1 24 Nov 09:34:42 09:37:10 15° 68° (ENE) 09:39:38 145.935-145.965
ZACube-1 24 Nov 09:37:08 09:39:41 16° 95° (E) 09:42:15 437.345
ANTELSAT 24 Nov 09:50:00 09:53:53 34° 73° (ENE) 09:57:45 437.575/2403.000
DOVE 4 24 Nov 09:50:01 09:54:12 85° 283° (WNW) 09:58:31 437.250
CUTE 1.7 & AOD 2 24 Nov 09:54:45 09:58:37 34° 287° (WNW) 10:02:29 437.475
BUGSAT 1 24 Nov 09:54:56 09:58:13 22° 71° (ENE) 10:01:29 437.445
AISAT 24 Nov 09:56:20 09:59:07 16° 95° (E) 10:01:53 437.250
POPSAT HIP 1 24 Nov 09:57:51 10:01:32 29° 72° (ENE) 10:05:12 437.405
FUNcube-1 24 Nov 10:11:29 10:15:30 41° 99° (E) 10:19:34 145.935
UKube-1 24 Nov 10:11:41 10:16:02 88° 283° (WNW) 10:20:22 .
GOMX 1 24 Nov 10:23:40 10:27:00 24° 288° (WNW) 10:30:23 467.674
Oscar 11 24 Nov 10:24:38 10:28:51 51° 285° (WNW) 10:33:03 145.826/435.025
CUBEBUG 2 24 Nov 10:27:59 10:32:14 84° 283° (WNW) 10:36:36 437.445
POLYITAN 1 24 Nov 10:29:31 10:33:46 74° 76° (ENE) 10:38:02 437.675
GONETS M04 24 Nov 10:29:53 10:36:00 21° 290° (WNW) 10:42:12
SEEDS 24 Nov 10:31:31 10:34:01 15° 291° (WNW) 10:36:31 437.485
QB50P2 24 Nov 10:32:20 10:36:36 80° 77° (ENE) 10:40:52 145.880/145.840
UWE-3 24 Nov 10:32:23 10:36:38 87° 282° (WNW) 10:40:59 435.000/436.395/437.385
DUCHIFAT 1 24 Nov 10:39:41 10:43:57 84° 258° (WSW) 10:48:14 145.980
CINEMA 3 24 Nov 10:40:57 10:44:47 34° 286° (WNW) 10:48:43 145.822/145.860
TIGRISAT 24 Nov 10:45:20 10:49:28 47° 260° (W) 10:53:34 435.000
DX 1 24 Nov 10:45:38 10:49:32 33° 288° (WNW) 10:53:24 434.975-435.025
HO-68 24 Nov 10:52:25 10:57:39 22° 298° (WNW) 11:02:52 435.675
AAUSAT CUBESAT 2 24 Nov 10:53:18 10:54:46 12° 293° (WNW) 10:56:13 437.432
UNISAT 6 24 Nov 10:58:12 11:02:03 32° 262° (W) 11:05:54 437.425
ESTCUBE 1 24 Nov 10:58:21 11:02:22 31° 98° (E) 11:06:21 437.505/2401.250
NANOSAT C BR1 24 Nov 10:58:58 11:03:05 47° 260° (W) 11:07:11 145.865
VELOX 1 24 Nov 11:06:26 11:10:50 70° 284° (WNW) 11:15:12 145.980
DELFI C3 24 Nov 11:07:05 11:09:55 18° 290° (WNW) 11:12:44 145.870
QB50P1 24 Nov 11:08:49 11:12:44 35° 262° (W) 11:16:39 145.935-145.965
HUMSAT D 24 Nov 11:09:52 11:13:59 61° 284° (WNW) 11:18:08 437.325/437.525
50 SAT 24 Nov 11:11:45 11:15:48 70° 283° (WNW) 11:19:51 437.505
ZACube-1 24 Nov 11:12:17 11:16:06 33° 287° (WNW) 11:19:58 437.345
ANTELSAT 24 Nov 11:28:20 11:30:46 15° 266° (W) 11:33:11 437.575/2403.000
BUGSAT 1 24 Nov 11:30:05 11:33:33 24° 263° (W) 11:37:02 437.445
AISAT 24 Nov 11:31:49 11:35:48 34° 288° (WNW) 11:39:46 437.250
POPSAT HIP 1 24 Nov 11:34:28 11:37:25 18° 265° (W) 11:40:21 437.405
TISAT 1 24 Nov 11:44:17 11:47:34 22° 96° (E) 11:50:50 437.305
SPROUT 24 Nov 11:48:04 11:51:22 22° 96° (E) 11:54:40 437.525
FUNcube-1 24 Nov 11:49:30 11:51:29 13° 292° (WNW) 11:53:29 145.935
CUBEBUG 1 24 Nov 11:51:39 11:55:57 60° 285° (WNW) 12:00:13 437.445
Oscar 19 24 Nov 12:17:16 12:21:14 23° 69° (ENE) 12:25:13 437.125/150
DANDE 24 Nov 12:33:51 12:34:16 10° 95° (E) 12:34:41 436.750
ESTCUBE 1 24 Nov 12:35:46 12:39:00 20° 291° (WNW) 12:42:13 437.505/2401.250
YUBILEINY 24 Nov 12:57:18 13:03:59 24° 72° (ENE) 13:10:36 435.215
ITAMSAT 1 24 Nov 13:05:47 13:10:07 27° 69° (ENE) 13:14:26 435.822/435.867
ITUPSAT 1 24 Nov 13:14:52 13:19:10 32° 98° (E) 13:23:26 437.325
TISAT 1 24 Nov 13:19:59 13:23:17 23° 289° (WNW) 13:26:34 437.305
SPROUT 24 Nov 13:23:55 13:27:21 24° 289° (WNW) 13:30:47 437.525
SWISSCUBE 24 Nov 13:26:17 13:30:56 49° 100° (E) 13:35:32 437.505
Gurwin Techsat 1B 24 Nov 13:27:24 13:31:36 25° 69° (ENE) 13:35:49 435.225
AUBIESAT-1 24 Nov 13:29:01 13:33:54 64° 105° (ESE) 13:38:37 437.475
PHONESAT 2.4 24 Nov 13:32:00 13:32:55 11° 139° (SE) 13:33:49 2401.200-2431.200
M-CUBED/EXP-1 PRIME 24 Nov 13:32:53 13:37:51 78° 106° (ESE) 13:42:38 437.505
SO-50 24 Nov 13:38:26 13:43:20 83° 62° (ENE) 13:48:14 436.795
AO-7 24 Nov 13:40:08 13:40:47 10° 51° (NE) 13:41:26 29.400- 29.500
VERMONT LUNAR 24 Nov 13:48:25 13:51:18 23° 143° (SE) 13:54:11 437.305
Oscar 19 24 Nov 13:55:48 14:00:21 32° 262° (W) 14:04:55 437.125/150
CUSAT 1 24 Nov 13:57:31 13:59:37 18° 280° (W) 14:01:33 437.405
BEESAT 24 Nov 13:57:39 14:02:28 80° 284° (WNW) 14:07:14 436.000
DANDE 24 Nov 14:16:04 14:17:35 13° 280° (W) 14:18:59 436.750
STARS 24 Nov 14:17:20 14:20:29 19° 96° (E) 14:23:37 437.465
MaSat-1 24 Nov 14:40:29 14:42:36 17° 108° (ESE) 14:44:35 437.345
ITAMSAT 1 24 Nov 14:44:57 14:49:26 29° 263° (W) 14:53:57 435.822/435.867
YUBILEINY 24 Nov 14:52:44 15:01:13 60° 269° (W) 15:09:40 435.215
KKS-1 24 Nov 14:53:09 14:57:36 84° 103° (ESE) 15:02:01 437.445
ITUPSAT 1 24 Nov 14:53:16 14:56:48 21° 291° (WNW) 15:00:20 437.325
HORYU 2 24 Nov 15:02:56 15:07:21 77° 258° (WSW) 15:11:47 437.375
SWISSCUBE 24 Nov 15:05:50 15:08:19 14° 294° (WNW) 15:10:49 437.505
AUBIESAT-1 24 Nov 15:06:04 15:08:16 13° 299° (WNW) 15:10:27 437.475
Gurwin Techsat 1B 24 Nov 15:06:35 15:11:20 33° 262° (W) 15:16:07 435.225
PHONESAT 2.4 24 Nov 15:07:34 15:11:15 71° 151° (SSE) 15:14:57 2401.200-2431.200
M-CUBED/EXP-1 PRIME 24 Nov 15:10:55 15:12:09 11° 300° (WNW) 15:13:23 437.505
RS-15 24 Nov 15:13:12 15:22:49 36° 106° (ESE) 15:32:17 29.354- 29.394
AO-7 24 Nov 15:23:47 15:31:53 62° 69° (ENE) 15:40:02 29.400- 29.500
VERMONT LUNAR 24 Nov 15:26:01 15:29:35 59° 336° (NNW) 15:33:11 437.305
STARS 24 Nov 15:53:10 15:56:56 29° 289° (WNW) 16:00:42 437.465
MaSat-1 24 Nov 16:15:19 16:17:03 14° 297° (WNW) 16:18:43 437.345
JAS-2 24 Nov 16:35:35 16:42:53 62° 73° (ENE) 16:50:37 435.910
O/OREOS (USA 219) 24 Nov 16:37:23 16:41:52 80° 71° (ENE) 16:46:21 437.305
PHONESAT 2.4 24 Nov 16:46:55 16:50:16 31° 346° (NNW) 16:53:36 2401.200-2431.200
VERMONT LUNAR 24 Nov 17:05:30 17:08:30 24° 353° (N) 17:11:31 437.305
Cubesat XI-IV 24 Nov 17:10:50 17:15:25 30° 70° (ENE) 17:20:01 437.490
AO-7 24 Nov 17:18:45 17:25:01 24° 264° (W) 17:31:20 29.400- 29.500
MOZHAYETS 4 24 Nov 17:22:05 17:26:46 89° 103° (ESE) 17:31:25
RS-15 24 Nov 17:23:58 17:34:37 54° 304° (NW) 17:45:16 29.354- 29.394
PRISM 24 Nov 17:34:56 17:37:51 18° 95° (E) 17:40:43 437.425
CUTE-I 24 Nov 17:51:49 17:57:09 75° 75° (ENE) 18:02:31 437.470
